Weather History for KABR - September, 2013

Change the Weather History Date:

Tuesday, September 10, 2013

  Actual Average Record
Temperature  
Mean Temperature 69 °F 61 °F  
Max Temperature 80 °F 75 °F 107 °F (1931)
Min Temperature 57 °F 48 °F 27 °F (1898)
Degree Days  
Heating Degree Days 0 5  
Month to date heating degree days 6 42  
Since 1 July heating degree days 57 93  
Cooling Degree Days 4 2  
Month to date cooling degree days 60 24  
Year to date cooling degree days 549 507  
Growing Degree Days 18 (Base 50)    
Moisture  
Dew Point 57 °F    
Average Humidity 73    
Maximum Humidity 100    
Minimum Humidity 45    
Precipitation  
Precipitation 0.00 in 0.08 in 2.35 in (1916)
Month to date precipitation 0.41 0.75  
Year to date precipitation 14.17 17.04  
Sea Level Pressure  
Sea Level Pressure 29.93 in    
Wind  
Wind Speed 8 mph (West)    
Max Wind Speed 15 mph    
Max Gust Speed 20 mph    
Visibility 10 miles    
Events      
T = Trace of Precipitation, MM = Missing Value Source: NWS Daily Summary

Daily Weather History Graph

Daily Weather History Graph

Search for Another Location

Airport or City:

Trip Planner

Search our weather history database for the weather conditions in past years. The results will help you decide how hot, cold, wet, or windy it might be!

Date:

Astronomy

Sep. 10, 2013 Rise Set
Actual Time 7:06 AM CDT 7:53 PM CDT
Civil Twilight 6:36 AM CDT 8:23 PM CDT
Nautical Twilight 6:00 AM CDT 8:59 PM CDT
Astronomical Twilight 5:23 AM CDT 9:36 PM CDT
Moon 12:51 PM CDT (9/10) 10:40 PM CDT (9/10)
Length of Visible Light 13h 47m
Length of Day
12h 47m
Waxing Crescent, 28% of the Moon is Illuminated
Sep 10
Waxing Crescent
Sep 12
First Quarter
Sep 19
Full
Sep 26
Last Quarter
Oct 4
New

Hourly Weather History & Observations

Time (CDT) Temp. Dew Point Humidity Pressure Visibility Wind Dir Wind Speed Gust Speed Precip Events Conditions
12:53 AM 64.9 °F 63.0 °F 93% 29.82 in 10.0 mi SSW 3.5 mph - N/A   Clear
1:53 AM 64.9 °F 63.0 °F 93% 29.83 in 10.0 mi SSW 6.9 mph - N/A   Clear
2:53 AM 63.0 °F 61.0 °F 93% 29.85 in 10.0 mi SW 4.6 mph - N/A   Clear
3:53 AM 60.1 °F 57.9 °F 93% 29.86 in 10.0 mi WSW 4.6 mph - N/A   Clear
4:53 AM 57.9 °F 57.0 °F 97% 29.87 in 10.0 mi SW 4.6 mph - N/A   Clear
5:53 AM 59.0 °F 55.0 °F 87% 29.87 in 10.0 mi WSW 6.9 mph - N/A   Clear
6:53 AM 57.0 °F 54.0 °F 89% 29.89 in 10.0 mi West 3.5 mph - N/A   Clear
7:53 AM 59.0 °F 55.0 °F 87% 29.90 in 10.0 mi WNW 9.2 mph - N/A   Clear
8:53 AM 64.0 °F 55.9 °F 75% 29.91 in 10.0 mi WNW 9.2 mph - N/A   Clear
9:53 AM 68.0 °F 57.0 °F 68% 29.93 in 10.0 mi NW 15.0 mph - N/A   Clear
10:53 AM 73.9 °F 57.0 °F 55% 29.95 in - WNW 12.7 mph - N/A   Clear
11:53 AM 75.0 °F 55.0 °F 50% 29.96 in 10.0 mi WNW 11.5 mph - N/A   Clear
12:53 PM 75.9 °F 55.0 °F 48% 29.96 in 10.0 mi WNW 11.5 mph 18.4 mph N/A   Clear
1:53 PM 78.1 °F 55.9 °F 46% 29.96 in 10.0 mi NNW 13.8 mph - N/A   Clear
2:53 PM 78.1 °F 55.9 °F 46% 29.96 in 10.0 mi West 8.1 mph - N/A   Clear
3:53 PM 79.0 °F 55.0 °F 44% 29.96 in 10.0 mi NW 10.4 mph - N/A   Clear
4:53 PM 77.0 °F 55.0 °F 47% 29.96 in 10.0 mi WNW 9.2 mph - N/A   Clear
5:53 PM 77.0 °F 55.0 °F 47% 29.96 in 10.0 mi WNW 6.9 mph - N/A   Clear
6:53 PM 75.0 °F 55.9 °F 51% 29.97 in 10.0 mi West 4.6 mph - N/A   Clear
7:53 PM 69.1 °F 59.0 °F 70% 29.98 in 10.0 mi SW 3.5 mph - N/A   Clear
8:53 PM 64.0 °F 59.0 °F 84% 29.99 in 10.0 mi SSW 4.6 mph - N/A   Clear
9:53 PM 62.1 °F 57.9 °F 86% 29.99 in 10.0 mi WSW 4.6 mph - N/A   Clear
10:53 PM 61.0 °F 57.0 °F 87% 30.00 in 10.0 mi SW 5.8 mph - N/A   Clear
11:53 PM 59.0 °F 55.9 °F 90% 30.00 in 10.0 mi WSW 5.8 mph - N/A   Clear